[[{"header":{"parameterUnit":"m.s-1","parameterCategory":1,"la1":30.2991,"la2":30.254,"lo1":-89.0895,"lo2":-89.0444,"dy":0.0017,"dx":0.0017,"nx":28,"ny":28,"refTime":"2025-11-07T09:00:00:Z","depth":0,"parameterNumber":2,"parameterNumberName":"U-component_of_WINDS"},"data":[0,0,0,0,0,0,0,0,0,0,0,0,0,0,0,0,0,0,0,0,0,0,0,0,0,0,0,0,0,0,0,0,0,0,0,0,0,0,0,0,0,0,0,0,0,0,0,0,0,0,0,0,0,0,0,0,0,0,0.6709,0.6709,0,0.6736,0.6736,0.6736,0.6704,0.6703,0.6702,0.6701,0.6726,0.6728,0.673,0,0,0,0,0,0,0,0,0,0,0,0,0,0.6628,0.663,0.6709,0.6709,0.6709,0.6736,0.6736,0.6736,0.6704,0.6703,0.6702,0.67,0.6726,0.6728,0.673,0,0,0,0,0,0,0,0,0,0,0,0,0,0.666,0.663,0.6709,0.6697,0.6696,0.6736,0.6736,0.6736,0.6705,0.6703,0.6701,0.67,0.6725,0.6728,0.673,0.6782,0,0,0.6739,0.674,0,0,0,0,0,0,0,0,0.6658,0.6663,0.6698,0.6698,0.6697,0.6715,0.6717,0.6752,0.6705,0.6701,0.6701,0.6699,0.6724,0.6727,0.6735,0.6784,0.6785,0.6739,0.674,0.6742,0.6742,0,0,0,0,0,0,0,0.6656,0.6662,0.6719,0.6699,0.6698,0.6689,0.6692,0.6723,0.6722,0.6702,0.6699,0.6703,0.6723,0.6733,0.6736,0.6785,0.6739,0.6741,0.6743,0.6744,0.6879,0.688,0,0,0,0,0,0,0.6655,0.666,0.6718,0.672,0.6673,0.6692,0.6695,0.6711,0.6722,0.6722,0.6705,0.6701,0.6729,0.6733,0.6737,0.68,0.6742,0.6744,0.6746,0.6877,0.6879,0.6881,0,0,0,0,0,0,0.6654,0.6661,0.6717,0.6689,0.6696,0.6696,0.6713,0.6712,0.6722,0.6724,0.6723,0.6715,0.6728,0.6733,0.6772,0.68,0.6745,0.6748,0.6874,0.6877,0.688,0.6925,0,0,0,0,0,0,0.6652,0.6661,0.6681,0.669,0.6698,0.6753,0.6715,0.6714,0.6727,0.6723,0.6734,0.6734,0.6727,0.6768,0.6774,0.6803,0.675,0.6872,0.6876,0.6879,0.6921,0.693,0.6937,0,0,0,0,0,0.6649,0.6692,0.6682,0.6689,0.6723,0.6754,0.6759,0.6751,0.6729,0.675,0.6751,0.6733,0.6795,0.6772,0.6779,0.6809,0.687,0.6875,0.6879,0.6918,0.6928,0.6936,0,0,0,0,0,0,0.6685,0.6693,0.6682,0.6729,0.6742,0.6749,0.6774,0.6761,0.6779,0.6775,0.6763,0.6766,0.6808,0.6812,0.6786,0.686,0.6829,0.6835,0.6857,0.6866,0.6873,0.6872,0.6752,0,0,0,0,0,0.6698,0.6724,0.6729,0.677,0.6777,0.6775,0.6788,0.6781,0.6793,0.6798,0.6802,0.6814,0.6836,0.6851,0.6871,0.6921,0.6924,0.6945,0.6952,0.6959,0.6965,0.6993,0.7003,0.6896,0.6896,0.6896,0,0,0.6726,0.6734,0.6751,0.6778,0.6786,0.6813,0.6779,0.6808,0.6828,0.6802,0.684,0.6843,0.6855,0.69,0.692,0.6905,0.6994,0.6964,0.6969,0.6972,0.6998,0.7008,0.7017,0.6899,0.6898,0.6898,0,0,0.6792,0.6799,0.6836,0.6845,0.6859,0.6857,0.6866,0.6875,0.6877,0.6915,0.6896,0.6918,0.6957,0.6967,0.6977,0.7046,0.7031,0.7053,0.7093,0.7121,0.7129,0.7136,0.7163,0.7172,0.7058,0.7059,0.7059,0,0.6825,0.6865,0.6855,0.6887,0.6899,0.6877,0.6914,0.6923,0.6943,0.6952,0.6934,0.6983,0.6989,0.7037,0.7054,0.7062,0.7072,0.7053,0.7129,0.7136,0.7143,0.7168,0.7178,0.7061,0.7061,0.7061,0.706,0,0.6906,0.6934,0.6961,0.6982,0.6997,0.7031,0.7026,0.7043,0.7034,0.7034,0.7073,0.708,0.7102,0.7113,0.7104,0.716,0.715,0.713,0.7099,0.7156,0.7179,0.7189,0.7065,0.7064,0.7063,0.7063,0,0,0.6995,0.7011,0.7021,0.7031,0.7045,0.7066,0.7098,0.7121,0.7136,0.715,0.7177,0.721,0.7193,0.7204,0.7196,0.722,0.7277,0.7198,0.7198,0.7214,0.734,0.7356,0.7367,0.7266,0.7268,0.7269,0.734,0,0.7062,0.712,0.7112,0.7167,0.7194,0.7173,0.7201,0.7213,0.7213,0.7235,0.7235,0.726,0.7234,0.7241,0.7264,0.7265,0.7302,0.7259,0.7292,0.7293,0.7292,0.7379,0.7396,0.7462,0.7348,0.735,0.7351,0,0.7148,0.7167,0.7225,0.7236,0.7246,0.7272,0.7293,0.7314,0.7326,0.7325,0.7338,0.7326,0.7358,0.7325,0.737,0.7342,0.7354,0.7357,0.7359,0.7363,0.7327,0.7387,0.7483,0.7494,0.7365,0.7364,0.7363,0,0.721,0.7249,0.7289,0.7298,0.7311,0.733,0.7336,0.7347,0.7361,0.7378,0.7388,0.7408,0.742,0.7436,0.743,0.7406,0.7476,0.7442,0.7477,0.7477,0.7494,0.7493,0.7595,0.7499,0.7499,0.7499,0.7498,0,0.7286,0.7323,0.7318,0.7343,0.7383,0.7374,0.7414,0.7417,0.7427,0.7452,0.7435,0.7458,0.7448,0.7471,0.7466,0.7505,0.7509,0.751,0.7508,0.7512,0.7513,0.7522,0.7518,0.7501,0.7501,0.75,0.75,0,0.7363,0.7361,0.7404,0.7413,0.7416,0.7446,0.7453,0.7477,0.7476,0.7508,0.7515,0.7513,0.754,0.7535,0.7563,0.7559,0.7609,0.76,0.7605,0.7604,0.7639,0.7637,0.7752,0.7767,0.766,0.7661,0.7661,0,0.7413,0.7441,0.7454,0.747,0.7478,0.7504,0.7519,0.751,0.7526,0.7543,0.7565,0.7589,0.7609,0.7652,0.7653,0.7675,0.7668,0.7707,0.7671,0.7675,0.7671,0.767,0.7674,0.7715,0.7716,0.7717,0.7718,0,0.7503,0.75,0.7523,0.7546,0.7565,0.7582,0.7597,0.7611,0.7603,0.7622,0.765,0.7665,0.7695,0.772,0.774,0.7746,0.7731,0.7728,0.7738,0.7744,0.7746,0.7747,0.7627,0.7726,0.7725,0.7725,0.7724,0.7724,0.7569,0.7594,0.7607,0.7633,0.7644,0.7659,0.7682,0.7684,0.7707,0.7731,0.7724,0.7756,0.7767,0.7793,0.7801,0.7826,0.7811,0.7824,0.7828,0.7832,0.7837,0.7741,0.7829,0.7829,0.7828,0.7828,0.7828,0,0.7659,0.7667,0.7691,0.7714,0.7734,0.7719,0.7735,0.7753,0.7781,0.7794,0.7814,0.7846,0.787,0.7873,0.7896,0.7915,0.7909,0.7922,0.7921,0.7923,0.7848,0.7838,0.7926,0.7926,0.7926,0.7926,0.7926,0.7926,0.7709,0.775,0.775,0.7796,0.7803,0.7835,0.7846,0.7859,0.787,0.7906,0.7927,0.7929,0.7938,0.7962,0.7984,0.7984,0.7994,0.801,0.8008,0.7938,0.7928,0.7919,0.791,0.8011,0.8012,0.8081,0.8081,0.8082]},{"header":{"parameterUnit":"m.s-1","parameterCategory":1,"la1":30.2991,"la2":30.254,"lo1":-89.0895,"lo2":-89.0444,"dy":0.0017,"dx":0.0017,"nx":28,"ny":28,"refTime":"2025-11-07T09:00:00:Z","depth":0,"parameterNumber":3,"parameterNumberName":"V-component_of_WINDS"},"data":[0,0,0,0,0,0,0,0,0,0,0,0,0,0,0,0,0,0,0,0,0,0,0,0,0,0,0,0,0,0,0,0,0,0,0,0,0,0,0,0,0,0,0,0,0,0,0,0,0,0,0,0,0,0,0,0,0,0,2.8835,2.8836,0,2.8899,2.89,2.89,2.8895,2.8894,2.8893,2.8892,2.8952,2.8955,2.8957,0,0,0,0,0,0,0,0,0,0,0,0,0,2.8701,2.8704,2.8835,2.8836,2.8836,2.8899,2.89,2.8901,2.8895,2.8894,2.8892,2.8891,2.8951,2.8954,2.8957,0,0,0,0,0,0,0,0,0,0,0,0,0,2.8762,2.8705,2.8835,2.8841,2.8842,2.8899,2.89,2.8901,2.8895,2.8894,2.8892,2.8891,2.895,2.8954,2.8958,2.901,0,0,2.8969,2.8971,0,0,0,0,0,0,0,0,2.8758,2.8767,2.8839,2.8841,2.8842,2.8887,2.8875,2.8937,2.8895,2.8875,2.8892,2.889,2.8931,2.8937,2.8952,2.9013,2.9016,2.897,2.8972,2.8973,2.8975,0,0,0,0,0,0,0,2.8754,2.8764,2.886,2.884,2.8842,2.8839,2.8846,2.8887,2.891,2.8877,2.8876,2.8884,2.8932,2.8948,2.8953,2.9016,2.8969,2.8973,2.8975,2.8977,2.9123,2.9125,0,0,0,0,0,0,2.8749,2.876,2.8858,2.8862,2.8796,2.8843,2.885,2.8874,2.891,2.8914,2.8885,2.8884,2.8942,2.8949,2.8955,2.9019,2.8973,2.8977,2.8979,2.9122,2.9124,2.9125,0,0,0,0,0,0,2.8746,2.8758,2.8855,2.8811,2.8823,2.8846,2.8873,2.8876,2.8893,2.8917,2.892,2.8898,2.8942,2.895,2.8997,2.9021,2.8979,2.8982,2.912,2.9122,2.9125,2.9148,0,0,0,0,0,0,2.8743,2.8757,2.8779,2.8812,2.8826,2.8898,2.8875,2.8879,2.89,2.8898,2.893,2.8933,2.8941,2.8991,2.9001,2.9026,2.8985,2.9118,2.9121,2.9124,2.9145,2.9151,2.9156,0,0,0,0,0,2.8738,2.8781,2.878,2.8792,2.8854,2.8899,2.8907,2.8917,2.8902,2.8923,2.8938,2.8932,2.9017,2.8996,2.9007,2.9033,2.9116,2.912,2.9124,2.9143,2.915,2.9156,0,0,0,0,0,0,2.8749,2.8786,2.8785,2.8841,2.8867,2.8898,2.8925,2.8924,2.8954,2.8951,2.8959,2.8966,2.9014,2.9028,2.9004,2.9086,2.9064,2.907,2.9075,2.9082,2.9087,2.9084,2.8988,0,0,0,0,0,2.8758,2.8794,2.8824,2.887,2.8884,2.8902,2.8922,2.8928,2.8955,2.8965,2.8984,2.9009,2.9041,2.9062,2.9093,2.9146,2.9153,2.917,2.9175,2.9179,2.9185,2.9214,2.9222,2.9138,2.9137,2.9137,0,0,2.8777,2.8802,2.8824,2.8873,2.8894,2.893,2.8912,2.895,2.8976,2.897,2.9017,2.9031,2.9059,2.911,2.9133,2.9123,2.9209,2.9184,2.9187,2.919,2.9219,2.9227,2.9234,2.914,2.914,2.9139,0,0,2.883,2.8853,2.8894,2.8916,2.8949,2.8961,2.897,2.9002,2.9012,2.9059,2.9056,2.9085,2.914,2.9161,2.9179,2.9238,2.9234,2.9248,2.9276,2.9305,2.9312,2.9318,2.934,2.9347,2.9253,2.9253,2.9253,0,2.8849,2.8905,2.8915,2.8955,2.8976,2.8974,2.9015,2.9035,2.9075,2.9089,2.9078,2.9147,2.9166,2.9221,2.9236,2.925,2.9261,2.9245,2.931,2.9316,2.9322,2.9343,2.9351,2.9254,2.9254,2.9254,2.9254,0,2.8927,2.8965,2.8994,2.9036,2.906,2.91,2.9114,2.9137,2.914,2.9152,2.9199,2.9222,2.9257,2.927,2.9272,2.9326,2.9319,2.9308,2.9288,2.9331,2.9351,2.9359,2.9257,2.9256,2.9256,2.9255,0,0,2.899,2.9037,2.9047,2.9066,2.9102,2.9131,2.9169,2.9206,2.9225,2.9252,2.9285,2.9331,2.9322,2.9342,2.9346,2.9371,2.9418,2.9357,2.9358,2.9369,2.9478,2.9487,2.9496,2.9414,2.9416,2.9417,2.9476,0,2.9048,2.912,2.913,2.9192,2.9227,2.9225,2.9259,2.9283,2.9295,2.9325,2.9338,2.9371,2.9356,2.9368,2.9393,2.9407,2.944,2.9402,2.9444,2.9445,2.9439,2.9507,2.9516,2.9571,2.9484,2.9485,2.9486,0,2.9125,2.9157,2.9224,2.9255,2.927,2.93,2.9334,2.9363,2.939,2.9397,2.9419,2.942,2.9458,2.9435,2.9487,2.9462,2.9479,2.9488,2.949,2.9496,2.947,2.9515,2.9589,2.9597,2.9498,2.9497,2.9497,0,2.9166,2.9225,2.9273,2.9289,2.9325,2.9347,2.9363,2.9389,2.941,2.9438,2.9452,2.9484,2.9502,2.9526,2.9534,2.9516,2.9587,2.9564,2.9593,2.9593,2.9609,2.9608,2.9688,2.9618,2.9618,2.9618,2.9618,0,2.9231,2.9272,2.9292,2.9322,2.9367,2.9376,2.942,2.9435,2.9458,2.9489,2.9487,2.9516,2.9525,2.9555,2.9561,2.9604,2.9612,2.9618,2.9619,2.9619,2.9618,2.9631,2.9628,2.962,2.9619,2.9619,2.9619,0,2.9285,2.93,2.9352,2.9383,2.9392,2.9424,2.9449,2.9477,2.9488,2.9527,2.9537,2.9554,2.9589,2.96,2.9641,2.9645,2.9696,2.9693,2.9688,2.9688,2.9718,2.9715,2.981,2.9823,2.9743,2.9743,2.9744,0,2.9326,2.9358,2.9392,2.9414,2.9432,2.9466,2.9488,2.9498,2.952,2.9553,2.9576,2.9611,2.964,2.9695,2.9711,2.9742,2.9741,2.9772,2.9745,2.9744,2.9742,2.9741,2.9744,2.9777,2.9778,2.9779,2.9779,0,2.9397,2.9403,2.9436,2.9472,2.9498,2.9526,2.9553,2.957,2.9583,2.9608,2.9645,2.9667,2.971,2.9745,2.9777,2.9791,2.9787,2.9787,2.9796,2.9796,2.9792,2.9796,2.9703,2.9785,2.9785,2.9784,2.9784,2.9784,2.9447,2.9475,2.9504,2.9541,2.9562,2.9587,2.9615,2.963,2.9662,2.9699,2.9701,2.9741,2.9766,2.9809,2.9824,2.9854,2.9845,2.9857,2.9861,2.9864,2.9867,2.9787,2.986,2.986,2.9859,2.9859,2.9859,0,2.9519,2.9538,2.9571,2.961,2.9638,2.9633,2.9662,2.9686,2.9721,2.9745,2.9774,2.9815,2.9849,2.9866,2.9899,2.9919,2.9919,2.9928,2.9927,2.993,2.9873,2.9863,2.9928,2.9928,2.9928,2.9928,2.9928,2.9928,2.956,2.9608,2.9617,2.9675,2.9693,2.9733,2.975,2.9773,2.9792,2.984,2.9868,2.988,2.9901,2.9935,2.9965,2.9969,2.9981,2.9992,2.9995,2.9941,2.9934,2.9928,2.9918,2.9994,2.9994,3.005,3.0051,3.0051]}]]